Location: ?
(35.4064°N, 139.3593°E)
Time: 18:23:36
(UTC+00:00)

Hubble Space Telescope - Pass Details

Date: 16 December 2025
Orbit: 479 x 482 km, 28.5° (Epoch: 12 January)

Event Time Altitude Azimuth Distance (km) Brightness Sun altitude
Rises 09:39:07 0° 258° (WSW) 2,528 5.6 -25.2°
Reaches altitude 10° 09:41:55 10° 237° (WSW) 1,647 4.1 -25.8°
Maximum altitude 09:44:22 16° 196° (SSW) 1,300 3.0 -26.3°
Enters shadow 09:44:30 16° 194° (SSW) 1,301 2.9 -26.3°
